Theta_e
321 321 321 321 321 321 321 321 320 320 320 321 321 321 321 322 321 314 307 318 318 334 324 314 306 305 303 301 306 307 303 300 302 306 305 314 315 323 326 321 324 326 324 325 329
320 320 320 320 320 320 320 320 320 320 320 321 321 321 321 322 311 306 322 337 337 337 305 302 302 305 302 300 303 301 299 302 309 312 312 319 318 318 319 319 321 324 327 330 331
319 320 320 320 320 320 320 320 320 320 321 320 320 320 321 320 306 308 338 339 336 331 304 305 307 307 301 302 300 305 300 310 313 315 320 319 317 323 319 317 323 322 325 329 331
318 319 320 320 319 319 319 319 319 319 319 319 319 321 322 313 298 310 342 339 334 310 305 306 304 304 305 307 311 308 314 314 317 320 320 317 320 315 321 321 326 329 330 329 328
318 318 319 319 319 319 319 319 318 318 318 318 319 321 313 301 303 322 343 333 311 305 305 304 304 302 305 309 312 311 316 321 321 319 318 320 315 315 319 326 328 328 330 327 329
317 318 318 318 318 318 318 318 317 317 317 318 320 322 304 298 311 324 314 312 308 304 305 304 303 304 310 307 309 313 317 318 321 319 319 314 314 316 320 327 327 327 328 328 331
317 317 317 318 318 318 317 317 316 317 318 319 321 318 302 303 314 313 310 306 307 308 306 306 306 305 309 309 312 316 313 313 313 317 317 319 312 310 323 326 323 327 328 330 329
317 317 317 317 317 317 318 317 316 317 318 319 321 308 303 307 313 314 310 312 310 308 308 308 307 306 310 312 310 306 303 299 309 314 316 313 304 316 319 319 320 326 327 328 327
317 317 317 317 317 317 316 315 317 318 318 319 309 308 300 315 311 312 311 307 306 307 308 314 307 306 309 305 300 300 297 300 306 314 315 311 306 316 319 316 318 325 327 326 323
317 316 316 316 316 316 314 314 317 316 317 318 313 300 306 307 313 311 308 309 308 309 308 308 304 300 299 298 293 297 299 301 303 311 313 311 310 315 319 317 319 322 325 324 322
317 316 315 315 315 314 308 300 301 300 300 299 301 303 305 312 313 311 310 309 310 308 301 304 301 297 300 301 301 303 303 304 307 312 309 309 310 316 318 319 318 319 321 321 322
316 316 316 315 315 314 303 301 302 301 297 302 302 305 309 310 306 310 312 308 306 301 303 301 298 303 304 304 308 307 304 302 307 310 309 307 307 311 314 315 315 315 320 321 321
314 314 315 315 314 304 300 303 303 300 295 302 304 304 304 307 305 307 311 309 305 302 301 300 303 307 306 307 307 304 303 303 304 309 310 306 303 305 312 315 317 317 319 322 321
314 314 314 313 303 298 299 305 303 301 294 299 303 306 306 305 305 311 313 310 306 301 303 302 304 305 303 304 305 300 308 308 306 300 295 305 292 301 307 308 312 315 315 318 320
313 313 313 311 298 300 302 303 303 306 289 304 302 307 304 304 305 309 315 312 305 304 303 302 303 301 300 303 308 304 310 306 304 300 299 300 294 297 305 305 308 311 313 316 318
313 313 312 304 300 304 305 302 305 294 291 300 300 298 299 302 305 309 311 312 311 304 303 302 307 305 304 310 311 311 305 302 300 296 291 296 296 297 301 305 308 312 314 317 315
312 312 308 308 301 301 303 304 290 290 301 298 296 298 298 300 303 306 305 303 300 297 296 302 304 306 312 307 307 304 298 291 290 290 289 299 297 298 305 308 312 314 314 316 314
311 308 307 309 302 304 305 296 286 296 299 306 301 298 297 300 301 304 302 299 302 301 297 296 296 303 306 306 303 303 298 292 287 287 290 299 294 301 309 311 314 315 314 312 311
307 301 302 306 308 304 300 288 289 298 305 303 301 295 296 299 299 299 299 300 303 303 297 299 299 309 309 305 306 302 297 299 295 295 292 295 301 306 309 310 309 307 308 309 310
303 304 305 307 304 303 296 291 297 305 305 303 296 297 293 296 297 296 298 304 304 306 304 303 298 307 309 308 307 302 302 295 293 288 287 293 296 298 304 307 306 305 306 306 309
305 303 308 307 302 296 289 291 299 305 305 300 300 299 296 296 297 296 300 304 307 309 308 305 303 302 306 302 301 299 298 296 295 295 290 289 293 306 306 308 307 305 305 307 309
299 298 308 303 295 290 290 296 302 303 304 301 303 303 302 301 296 296 299 304 313 312 307 306 300 298 300 305 308 301 298 296 292 292 295 293 294 308 309 310 310 306 307 307 310
294 296 308 303 292 290 292 298 302 301 301 301 302 304 305 301 295 298 301 313 316 311 308 307 299 294 297 301 302 301 301 299 297 297 295 293 294 311 310 310 310 307 306 308 309
297 295 302 298 295 293 292 295 298 307 306 307 304 304 301 300 301 301 303 313 316 316 317 310 299 297 294 297 299 300 301 301 299 294 295 297 299 306 308 309 310 308 306 307 309
296 296 303 296 296 293 293 296 296 297 303 305 301 303 299 296 299 301 305 308 312 316 310 304 299 299 300 304 304 303 302 301 299 299 298 299 301 305 309 309 311 309 305 306 307
299 303 303 303 305 299 296 294 296 299 301 302 299 303 303 300 300 298 304 301 301 308 306 304 298 300 299 305 305 303 304 303 303 305 305 304 303 310 311 309 308 307 306 307 309
301 302 304 301 303 294 294 297 299 304 305 307 305 302 302 305 307 305 305 305 304 301 304 302 300 297 295 303 302 297 303 303 306 307 306 302 306 310 309 310 310 307 306 307 309
Wind_Speed
14 13 13 12 12 12 12 13 14 14 14 16 17 15 15 14 14 3 4 7 5 8 6 7 3 3 3 2 3 3 6 3 5 3 2 6 5 4 5 10 9 8 5 3 5
13 14 13 12 11 12 12 13 14 15 14 15 17 15 14 12 2 2 8 8 7 8 4 5 5 5 2 2 3 5 4 3 1 5 14 17 12 6 9 9 8 9 12 10 11
12 12 14 13 13 12 13 14 13 15 14 15 17 16 14 7 1 1 5 8 6 7 2 3 5 5 4 3 3 4 3 5 6 12 17 15 22 5 7 8 4 9 7 7 10
12 13 12 13 13 12 13 15 14 15 15 14 16 16 17 2 4 2 6 7 4 4 3 4 4 4 5 5 3 9 7 7 4 5 9 8 7 8 12 4 4 5 8 2 9
12 12 12 12 13 13 13 14 14 15 15 13 15 15 4 3 2 1 4 6 3 1 3 4 7 2 6 7 9 14 7 10 20 20 12 14 5 10 5 9 11 6 5 4 7
13 14 14 14 14 14 13 14 14 13 13 12 12 15 2 1 1 4 2 5 3 2 1 2 3 1 7 6 8 10 14 10 6 9 7 8 4 3 1 2 9 1 2 1 11
13 13 13 14 15 15 15 14 15 12 12 10 9 3 2 7 4 3 2 1 4 3 3 2 4 3 5 9 5 12 16 7 3 2 4 3 10 5 7 7 6 4 4 4 10
13 14 14 14 16 16 15 16 17 13 10 7 5 1 5 2 1 5 2 4 3 3 2 4 3 6 6 8 5 7 4 3 2 3 3 5 3 4 5 5 4 1 6 5 8
13 13 14 15 16 17 18 18 13 4 4 0 1 1 6 1 2 2 5 2 3 2 2 3 4 5 6 9 6 4 5 2 3 3 3 5 3 5 4 3 3 2 2 8 5
14 13 13 15 17 17 21 8 1 3 1 2 3 3 3 3 3 2 3 3 2 1 4 5 6 6 5 3 6 9 5 2 2 4 7 5 2 7 4 3 4 3 2 6 4
13 13 14 14 14 15 11 3 8 6 5 2 6 4 5 7 3 3 3 4 4 8 3 3 7 1 8 11 4 8 7 7 2 3 7 2 4 5 1 4 6 4 4 4 5
12 13 13 13 12 12 3 7 6 3 9 4 5 6 6 3 2 1 4 2 5 3 1 5 1 4 4 6 8 7 11 4 4 3 6 2 3 2 4 4 6 5 6 5 4
12 13 15 14 12 4 2 2 3 3 1 8 5 4 3 5 1 3 5 1 5 2 3 5 4 4 6 5 7 2 7 7 7 5 7 4 3 2 1 3 3 3 3 6 8
12 13 15 22 4 4 4 1 5 6 5 7 4 5 3 2 3 4 5 5 2 4 4 2 2 4 6 3 3 2 7 8 14 4 2 1 4 4 3 5 5 8 7 8 8
11 11 11 10 2 2 5 8 4 4 3 3 3 1 2 5 2 3 3 3 5 5 5 6 5 3 4 1 5 1 10 8 5 6 5 1 3 6 2 6 9 8 9 9 9
10 9 9 0 0 7 8 7 4 7 2 4 1 0 3 2 2 1 2 5 3 4 3 3 2 1 3 6 9 10 9 9 6 4 3 3 4 5 5 8 5 6 8 11 8
10 8 2 1 4 5 5 5 7 4 4 3 2 1 1 0 1 2 4 2 4 5 5 6 3 3 9 11 1 7 6 4 3 4 5 4 1 9 6 8 9 12 8 8 8
11 6 4 4 3 7 4 7 3 2 4 5 2 2 3 2 1 2 4 2 2 5 3 3 5 4 3 7 9 6 7 7 3 3 3 1 4 7 6 6 5 6 7 7 10
9 2 3 3 1 3 7 5 5 3 3 6 5 3 1 1 2 3 1 7 6 6 7 4 4 3 2 3 7 4 2 4 9 3 2 2 7 5 3 1 1 6 7 9 6
2 3 4 4 2 5 7 4 4 4 4 3 1 2 3 2 2 2 2 4 5 7 2 5 2 0 2 4 6 3 7 4 5 2 2 5 5 7 6 8 6 7 9 8 7
4 4 4 1 3 7 3 6 6 6 3 2 2 2 3 4 5 2 1 2 3 3 4 5 5 4 2 2 7 1 1 8 6 4 5 2 8 8 10 12 12 10 9 11 9
3 2 3 3 6 1 2 4 5 5 2 3 2 3 2 3 4 4 5 3 2 5 8 4 5 3 4 3 1 1 3 5 7 4 1 4 9 1 6 7 9 9 10 7 7
2 2 3 5 2 2 4 4 4 4 4 3 3 1 2 1 1 6 6 2 2 6 8 7 2 3 8 7 3 2 2 5 5 4 5 5 8 1 2 6 7 10 9 8 8
4 2 5 5 0 5 1 4 5 4 5 4 4 0 1 2 2 2 4 3 2 2 3 9 4 7 9 7 3 3 4 4 5 4 5 7 5 3 4 7 6 8 9 10 11
3 2 2 1 3 2 2 2 3 6 3 3 3 3 2 3 3 0 1 1 3 4 3 5 3 3 4 3 2 3 4 8 7 5 6 4 7 6 10 12 11 8 6 8 8
4 3 2 1 1 2 1 3 4 4 5 4 2 4 2 1 3 1 2 1 2 2 3 3 2 1 1 4 5 4 2 7 2 3 2 2 5 6 2 5 5 8 10 11 12
1 2 4 1 2 3 4 4 4 1 6 7 3 2 3 6 4 3 0 1 4 1 2 3 5 4 4 4 6 5 4 4 4 4 7 4 8 4 4 7 9 9 12 14 11
Wind_Direction
335 330 324 322 317 318 321 319 316 319 319 314 312 317 318 320 316 145 240 219 177 125 153 119 93 103 60 104 78 117 66 138 132 130 164 14 79 42 53 58 40 35 31 83 50
330 324 320 316 322 321 320 314 319 319 319 315 313 317 319 330 337 212 246 183 152 160 146 149 137 128 48 58 23 85 91 126 180 148 92 65 60 68 66 65 50 75 45 43 57
322 318 316 321 326 323 319 313 321 318 318 317 316 319 317 326 17 287 194 169 164 187 137 128 108 142 83 68 41 31 73 131 5 96 106 93 61 59 116 59 62 29 26 47 70
319 319 316 321 322 319 316 310 320 316 315 319 318 320 318 189 101 260 195 133 147 186 167 149 94 86 90 75 48 92 46 108 197 127 98 95 141 67 86 106 114 84 339 68 78
320 320 322 321 316 316 313 308 314 310 310 317 322 324 343 8 255 267 184 126 138 217 50 21 49 70 71 103 99 91 96 66 108 100 86 116 78 88 97 143 134 138 316 32 95
323 324 326 324 318 313 314 305 303 300 302 315 324 319 14 76 85 154 228 110 124 103 40 40 83 164 95 46 66 113 99 105 96 86 62 94 44 128 323 162 103 154 23 153 80
324 320 325 322 313 314 311 303 294 291 296 309 321 332 75 224 108 132 206 290 152 170 128 240 137 76 94 98 127 95 99 109 50 103 140 41 37 36 119 99 51 280 102 97 86
322 321 329 319 313 315 312 303 293 291 290 290 301 273 243 217 146 307 159 284 222 232 183 157 162 103 87 139 48 87 64 89 341 171 34 96 266 185 191 114 335 5 158 118 81
322 325 322 320 320 322 314 304 302 329 209 167 334 83 280 304 223 277 167 194 153 153 259 114 79 88 57 96 55 345 181 148 178 62 110 60 207 182 138 160 310 311 173 128 154
319 326 326 324 325 326 318 294 357 91 107 175 255 39 321 303 286 269 208 202 76 151 60 44 57 78 45 75 196 190 142 116 172 20 50 44 41 151 154 194 286 123 217 154 167
321 331 327 324 329 330 348 355 11 354 29 240 266 245 268 283 257 207 165 155 103 49 83 351 77 151 235 221 192 121 107 114 71 105 83 18 98 118 200 260 283 234 210 220 145
327 329 325 325 327 327 330 84 114 240 311 268 250 274 264 244 337 59 141 92 82 110 337 25 43 196 108 93 114 104 117 92 69 56 92 156 96 159 180 222 233 230 197 179 173
333 334 330 322 315 13 359 154 96 152 173 300 232 242 246 144 199 242 129 120 114 98 50 116 258 318 130 121 114 101 134 169 139 123 51 108 354 292 176 245 266 230 219 191 178
334 336 337 326 48 317 299 162 304 180 55 286 311 284 161 209 308 213 195 138 60 143 152 220 287 39 97 154 84 118 139 121 125 107 154 27 265 284 256 276 217 213 205 187 187
329 332 340 10 258 344 285 339 322 63 43 311 262 257 89 140 272 222 211 66 154 140 87 262 340 43 94 51 94 63 101 99 94 92 106 256 69 262 118 267 249 233 206 202 196
319 323 329 168 138 248 312 311 56 41 24 356 282 1 85 347 318 104 115 55 127 95 16 244 287 165 99 39 94 154 80 46 49 74 46 243 157 268 194 207 236 220 199 195 186
313 314 285 313 252 320 323 40 41 108 337 351 256 115 107 99 349 75 136 116 128 84 360 346 351 62 105 82 5 92 77 33 340 8 215 201 107 245 235 212 208 197 194 186 179
313 309 219 228 319 356 39 47 66 296 275 315 306 89 140 167 2 64 90 104 45 86 109 107 351 164 174 161 175 180 150 151 234 211 249 233 226 254 263 256 234 173 176 150 176
308 312 330 277 217 125 69 57 217 214 305 331 315 96 298 270 123 82 90 185 194 167 149 138 275 303 26 119 125 210 154 159 104 27 35 259 286 299 38 53 147 157 152 175 153
55 14 296 338 85 59 73 235 252 220 317 9 17 89 161 258 121 93 214 203 182 194 123 207 81 215 188 105 49 132 144 75 38 127 298 287 281 243 198 214 208 188 180 178 182
50 31 282 5 45 47 143 239 282 262 270 328 325 343 212 174 164 205 194 259 188 118 104 138 113 279 48 178 176 103 35 49 105 122 158 285 267 220 207 190 195 202 190 185 179
88 29 301 62 53 30 159 210 283 290 311 284 234 243 193 158 163 213 199 236 72 152 156 183 135 162 202 305 347 111 161 132 116 211 144 152 274 92 264 206 174 195 192 185 172
96 251 321 86 117 318 293 287 256 306 293 313 294 259 51 331 236 184 221 148 204 160 169 187 61 61 355 353 356 210 135 101 102 82 187 139 264 3 277 224 190 180 188 171 163
87 35 333 52 81 134 82 286 291 290 266 261 272 277 18 39 18 244 181 19 89 109 80 90 114 151 186 205 175 186 165 148 122 122 177 228 280 281 233 218 195 196 190 173 180
41 244 194 234 309 178 177 282 289 334 290 318 304 270 164 347 39 77 324 78 50 172 53 100 133 156 212 246 227 234 202 173 193 168 164 252 213 259 214 211 207 191 150 163 179
133 135 8 135 347 153 149 247 224 254 217 290 245 317 292 202 195 323 109 113 203 17 71 10 144 120 325 11 10 268 308 179 149 150 271 128 258 225 214 119 168 181 174 191 200
260 356 104 286 97 113 220 230 258 142 259 223 269 236 242 240 211 221 31 52 73 134 101 78 119 80 262 3 359 349 285 199 192 178 147 169 234 168 196 215 215 186 190 200 188